2021�N�x�@��C������Ԃɂ�鑪�茋��,,,,,,,,,,,,,,,
,,,,,,,,,,,,,,,
�P�@����n�_,,,,,,,,,,,,,,,
�k���É��s���V�ہi�k���É��s���V�ې����c15�j,,,,,,,,,,,,,,,
,,,,,,,,,,,,,,,
�Q�@���Ԓl�i�m��l�j��2021�N10��5���`2021�N10��27��,,,,,,,,,,,,,,,
,,,,,,,,,,,,,,,
,�N,��,��,��,SO2,SPM,Ox,CO,NO,NO2,PM2.5,���x,���x,����,����
,,,,,ppm,mg/m3,ppm,ppm,ppm,ppm,��g/m3,��,%,�ő�,m/s
H03,2021,10,5,1,***,0.02,0.016,***,***,***,***,24.2,76.4,CALM,0
H03,2021,10,5,2,0.002,0.019,0.014,0.2,0.001,0.011,***,23.9,77,CALM,0.1
H03,2021,10,5,3,0.002,0.019,0.004,0.2,0.002,0.021,***,22.8,79.3,CALM,0.1
H03,2021,10,5,4,0.002,0.019,0,0.2,0.003,0.022,***,21.9,79.8,CALM,0
H03,2021,10,5,5,0.003,0.023,0,0.3,0.003,0.023,***,21.5,80.5,CALM,0.2
H03,2021,10,5,6,0.003,0.023,0,0.3,0.003,0.02,***,21.9,78.3,CALM,0
H03,2021,10,5,7,0.004,0.022,0.004,0.3,0.005,0.016,***,21.9,76.9,CALM,0.1
H03,2021,10,5,8,0.004,0.021,0.007,0.3,0.008,0.016,***,23.7,70.2,CALM,0.2
H03,2021,10,5,9,0.004,0.02,0.013,0.3,0.008,0.014,***,24.8,66.4,CALM,0.1
H03,2021,10,5,10,0.003,0.02,0.024,0.3,0.004,0.011,***,26.1,63,S,0.5
H03,2021,10,5,11,0.002,0.019,0.04,0.2,0.002,0.007,***,27,55,SSE,0.4
H03,2021,10,5,12,0.002,0.017,0.048,0.2,0.001,0.005,***,30.7,43.2,SSE,0.5
H03,2021,10,5,13,0.002,0.019,0.048,0.2,0.001,0.005,***,30.9,42.1,SSE,0.6
H03,2021,10,5,14,0.002,0.02,0.052,0.2,0.001,0.005,***,30.5,45.5,ESE,0.5
H03,2021,10,5,15,0.002,0.015,0.053,0.2,0.001,0.005,***,30.8,42.8,SE,0.6
H03,2021,10,5,16,0.002,0.013,0.052,0.2,0.001,0.005,***,30.3,41.4,SE,0.3
H03,2021,10,5,17,0.002,0.013,0.047,0.2,0.001,0.005,***,29.2,48.5,SSE,0.4
H03,2021,10,5,18,0.002,0.018,0.046,0.2,0,0.007,***,27.8,46.4,SSE,0.3
H03,2021,10,5,19,0.003,0.018,0.035,0.2,0,0.01,***,26.6,49.4,CALM,0.2
H03,2021,10,5,20,0.003,0.017,0.029,0.2,0,0.012,***,25.6,50.3,SSE,0.4
H03,2021,10,5,21,0.003,0.016,0.03,0.2,0,0.011,***,25.7,49.2,SSE,0.3
H03,2021,10,5,22,0.002,0.014,0.029,0.2,0,0.011,***,24.5,53.5,CALM,0.1
H03,2021,10,5,23,0.003,0.012,0.03,0.2,0,0.009,***,24.1,55.4,CALM,0.2
H03,2021,10,5,24,0.004,0.015,0.03,0.2,0,0.007,***,23.4,58.6,SSE,0.3
H03,2021,10,6,1,0.003,0.016,0.025,0.2,0,0.01,***,22.7,62.3,CALM,0.2
H03,2021,10,6,2,0.003,0.014,0.019,0.2,0,0.013,***,22.4,63.1,CALM,0
H03,2021,10,6,3,0.002,0.015,0.02,0.2,0,0.011,***,21.9,65.6,CALM,0.1
H03,2021,10,6,4,0.002,0.015,0.015,0.2,0.001,0.013,***,21.3,68.4,CALM,0.1
H03,2021,10,6,5,0.002,0.015,0.009,0.2,0.001,0.016,***,21,71.4,CALM,0.1
H03,2021,10,6,6,0.002,0.019,0.003,0.2,0.003,0.02,***,21,71.9,CALM,0
H03,2021,10,6,7,0.002,0.018,0.003,0.3,0.009,0.024,***,22.4,68.3,CALM,0
H03,2021,10,6,8,0.002,0.02,0.007,0.3,0.015,0.023,***,23.4,64.8,CALM,0.1
H03,2021,10,6,9,0.003,0.021,0.02,0.2,0.007,0.019,***,25.3,61.9,CALM,0.1
H03,2021,10,6,10,0.002,0.019,0.034,0.2,0.002,0.011,***,27.9,53.9,S,0.5
H03,2021,10,6,11,0.002,0.009,0.042,0.2,0.001,0.004,***,29.1,49.5,S,0.5
H03,2021,10,6,12,0.002,0.006,0.04,0.2,0.002,0.005,***,31.4,43.1,SSE,0.6
H03,2021,10,6,13,0.002,0.008,0.04,0.2,0.002,0.006,***,31.7,41.8,S,0.5
H03,2021,10,6,14,0.002,0.006,0.041,0.2,0.002,0.005,***,31.3,47.3,SSE,0.9
H03,2021,10,6,15,0.002,0.007,0.041,0.2,0.002,0.006,***,30.5,49.4,S,0.9
H03,2021,10,6,16,0.002,0.004,0.041,0.2,0.002,0.006,***,29.6,50.1,SSE,0.7
H03,2021,10,6,17,0.002,0.003,0.04,0.2,0.001,0.005,***,28.2,54.4,SSE,0.8
H03,2021,10,6,18,0.002,0.008,0.036,0.2,0.001,0.006,***,26.6,58.7,SSE,0.5
H03,2021,10,6,19,0.002,0.007,0.034,0.2,0.001,0.006,***,25.5,63.2,SSE,0.4
H03,2021,10,6,20,0.002,0.007,0.03,0.2,0.001,0.007,***,25.1,63.6,SSE,0.3
H03,2021,10,6,21,0.003,0.007,0.028,0.2,0,0.008,***,25.1,63.1,CALM,0.1
H03,2021,10,6,22,0.003,0.006,0.029,0.2,0,0.006,***,24.9,63.6,CALM,0.2
H03,2021,10,6,23,0.003,0.005,0.028,0.2,0,0.006,***,25.1,62,CALM,0
H03,2021,10,6,24,0.003,0.006,0.021,0.2,0,0.012,***,24.4,64.2,CALM,0.1
H03,2021,10,7,1,0.002,0.01,0.02,0.2,0.001,0.01,***,22.7,80.3,CALM,0.1
H03,2021,10,7,2,0.003,0.006,0.02,0.2,0,0.008,***,23,77.5,CALM,0.1
H03,2021,10,7,3,0.002,0.007,0.013,0.2,0.001,0.014,***,22.7,73.1,SSE,0.3
H03,2021,10,7,4,0.002,0.006,0.014,0.2,0.001,0.011,***,22.7,74.3,SSE,0.3
H03,2021,10,7,5,0.002,0.008,0.007,0.2,0.001,0.017,***,22.5,78,SSE,0.3
H03,2021,10,7,6,0.002,0.007,0.003,0.2,0.001,0.019,***,22.2,82.2,SSE,0.3
H03,2021,10,7,7,0.002,0.006,0.002,0.3,0.004,0.017,***,22.7,79.6,CALM,0.2
H03,2021,10,7,8,0.002,0.01,0.003,0.3,0.006,0.016,***,23,76,CALM,0.1
H03,2021,10,7,9,0.002,0.011,0.005,0.3,0.008,0.015,***,23.9,70.8,SSE,0.3
H03,2021,10,7,10,0.003,0.012,0.013,0.3,0.007,0.013,***,25.7,62.3,SSW,0.3
H03,2021,10,7,11,0.003,0.013,0.025,0.3,0.004,0.014,***,26.4,61.3,S,0.6
H03,2021,10,7,12,0.002,0.014,0.033,0.3,0.003,0.014,***,27.1,60.9,SSE,0.6
H03,2021,10,7,13,0.003,0.018,0.036,0.3,0.002,0.015,***,27.5,61.8,E,0.6
H03,2021,10,7,14,0.004,0.026,0.042,0.4,0.002,0.014,14,28.4,59.7,E,1.1
H03,2021,10,7,15,0.003,0.017,0.046,0.3,0.002,0.009,11,28.4,56.7,S,1.3
H03,2021,10,7,16,0.003,0.012,0.044,0.3,0.001,0.007,9,27.9,60.9,S,1.3
H03,2021,10,7,17,0.002,0.01,0.044,0.2,0,0.006,9,27.1,64.4,SSE,1.1
H03,2021,10,7,18,0.002,0.016,0.04,0.2,0,0.008,10,26.7,67.9,SSW,1.1
H03,2021,10,7,19,0.002,0.016,0.038,0.2,0,0.008,10,25.9,72.3,SW,1.1
H03,2021,10,7,20,0.002,0.013,0.038,0.2,0,0.007,8,25.8,73.1,SW,0.8
H03,2021,10,7,21,0.002,0.016,0.035,0.2,0,0.008,6,25.5,75.5,SW,0.5
H03,2021,10,7,22,0.002,0.016,0.03,0.2,0,0.01,7,25.4,75.9,SW,0.5
H03,2021,10,7,23,0.002,0.016,0.032,0.2,0,0.008,7,25.2,76.6,SW,0.6
H03,2021,10,7,24,0.002,0.017,0.031,0.2,0,0.007,9,25.1,77.5,WSW,0.6
H03,2021,10,8,1,0.002,0.018,0.027,0.2,0,0.007,9,24.8,78.6,SW,0.5
H03,2021,10,8,2,0.002,0.016,0.026,0.2,0.001,0.006,8,24.6,79.9,CALM,0.1
H03,2021,10,8,3,0.002,0.015,0.023,0.2,0,0.008,8,24.2,80.7,CALM,0
H03,2021,10,8,4,0.002,0.017,0.02,0.2,0.001,0.009,9,23.4,82,CALM,0
H03,2021,10,8,5,0.002,0.017,0.013,0.2,0.001,0.012,9,23.6,81.3,CALM,0
H03,2021,10,8,6,0.002,0.017,0.005,0.2,0.005,0.022,9,23.3,82.6,CALM,0
H03,2021,10,8,7,0.002,0.014,0.001,0.3,0.021,0.026,9,22.8,82.3,CALM,0
H03,2021,10,8,8,0.002,0.016,0.003,0.3,0.017,0.023,11,23.9,78.4,CALM,0.1
H03,2021,10,8,9,0.002,0.018,0.009,0.3,0.015,0.022,10,26.1,70.3,CALM,0.1
H03,2021,10,8,10,0.002,0.013,0.027,0.3,0.004,0.013,9,26.6,62.7,SSE,0.3
H03,2021,10,8,11,0.002,0.013,0.039,0.2,0.001,0.007,9,27.6,56.8,S,0.3
H03,2021,10,8,12,0.002,0.015,0.047,0.2,0.001,0.006,8,29,51.4,SE,0.5
H03,2021,10,8,13,0.003,0.017,0.052,0.2,0.001,0.006,***,30.3,45.4,SSE,0.7
H03,2021,10,8,14,0.002,0.012,0.056,0.2,0.001,0.007,6,30.3,48,SSE,0.5
H03,2021,10,8,15,0.002,0.009,0.053,0.2,0.001,0.004,8,30.4,44.2,SE,0.9
H03,2021,10,8,16,0.003,0.015,0.056,0.2,0.001,0.006,10,29.7,46.5,ESE,1
H03,2021,10,8,17,0.002,0.01,0.044,0.2,0.001,0.008,7,28.7,51.5,ESE,0.7
H03,2021,10,8,18,0.002,0.013,0.035,0.2,0.001,0.016,10,26.9,66.5,ENE,0.6
H03,2021,10,8,19,0.002,0.014,0.032,0.2,0,0.015,10,26.4,69.8,SE,0.8
H03,2021,10,8,20,0.003,0.014,0.029,0.2,0,0.013,8,26.3,68.2,SSW,0.6
H03,2021,10,8,21,0.003,0.016,0.026,0.3,0,0.015,10,26.1,70.5,SSW,0.3
H03,2021,10,8,22,0.003,0.02,0.026,0.3,0,0.014,11,25.9,73.1,SW,0.3
H03,2021,10,8,23,0.002,0.012,0.027,0.3,0,0.011,7,25.7,75.5,CALM,0.1
H03,2021,10,8,24,0.002,0.015,0.024,0.2,0.001,0.01,7,25.3,78,CALM,0
H03,2021,10,9,1,0.002,0.015,0.02,0.2,0.001,0.011,8,25.1,77.2,CALM,0.1
H03,2021,10,9,2,0.002,0.014,0.02,0.2,0.001,0.01,9,24.4,77.4,CALM,0
H03,2021,10,9,3,0.002,0.014,0.016,0.2,0.001,0.01,8,24,80.4,CALM,0.1
H03,2021,10,9,4,0.002,0.018,0.009,0.2,0.001,0.012,11,23.3,81.1,CALM,0
H03,2021,10,9,5,0.002,0.019,0.005,0.2,0.001,0.016,12,23.6,80.8,CALM,0.1
H03,2021,10,9,6,0.003,0.021,0.005,0.2,0.001,0.015,14,22.7,83.1,CALM,0.1
H03,2021,10,9,7,0.003,0.022,0.004,0.2,0.004,0.013,12,22.8,81,CALM,0.1
H03,2021,10,9,8,0.003,0.015,0.009,0.2,0.005,0.01,11,24.5,73.2,CALM,0.1
H03,2021,10,9,9,0.003,0.015,0.018,0.2,0.004,0.009,10,26.4,64.2,CALM,0.2
H03,2021,10,9,10,0.002,0.013,0.032,0.2,0.001,0.005,11,27.8,57.6,CALM,0.2
H03,2021,10,9,11,0.003,0.02,0.04,0.2,0.001,0.005,15,28.7,52.8,SE,0.5
H03,2021,10,9,12,0.003,0.017,0.051,0.2,0.001,0.004,10,31.5,43.1,S,0.5
H03,2021,10,9,13,0.002,0.012,0.056,0.2,0.001,0.006,9,30.2,47.6,SE,0.8
H03,2021,10,9,14,0.003,0.021,0.059,0.3,0.001,0.007,14,30,49.6,ESE,0.9
H03,2021,10,9,15,0.003,0.018,0.061,0.3,0.001,0.007,17,28.7,57.6,ESE,1
H03,2021,10,9,16,0.003,0.013,0.05,0.3,0,0.006,9,28.4,58.6,S,1.2
H03,2021,10,9,17,0.003,0.012,0.045,0.2,0,0.008,7,27.9,60.7,SSE,0.9
H03,2021,10,9,18,0.003,0.009,0.042,0.2,0,0.007,6,27.3,60.6,S,1
H03,2021,10,9,19,0.002,0.013,0.043,0.2,0,0.004,8,26.7,65.6,SSE,0.9
H03,2021,10,9,20,0.002,0.015,0.05,0.2,0,0.004,10,26.2,71.7,SSW,1.1
H03,2021,10,9,21,0.002,0.02,0.054,0.2,0,0.006,11,26.2,73.6,SW,0.6
H03,2021,10,9,22,0.002,0.021,0.052,0.3,0,0.006,11,26.1,72.7,CALM,0.1
H03,2021,10,9,23,0.002,0.017,0.046,0.3,0,0.006,10,25.5,75.3,SW,0.5
H03,2021,10,9,24,0.002,0.018,0.045,0.2,0,0.005,10,25.2,75.7,CALM,0.1
H03,2021,10,10,1,0.002,0.014,0.03,0.3,0,0.008,10,24.6,75.6,CALM,0.1
H03,2021,10,10,2,0.002,0.016,0.022,0.3,0.001,0.01,11,23.9,77.8,SW,0.4
H03,2021,10,10,3,0.002,0.015,0.019,0.3,0.001,0.01,9,24.1,78.1,CALM,0
H03,2021,10,10,4,0.002,0.015,0.018,0.2,0.001,0.01,10,24.2,76.8,CALM,0
H03,2021,10,10,5,0.002,0.017,0.012,0.3,0.001,0.014,11,23.6,80.3,CALM,0
H03,2021,10,10,6,0.002,0.016,0.012,0.2,0.001,0.011,11,23.1,80.8,CALM,0
H03,2021,10,10,7,0.002,0.017,0.011,0.2,0.002,0.009,10,23.1,79.9,CALM,0.2
H03,2021,10,10,8,0.002,0.016,0.016,0.2,0.002,0.007,12,24.1,76.5,CALM,0.1
H03,2021,10,10,9,0.002,0.014,0.023,0.2,0.001,0.007,9,25.3,68.2,CALM,0.1
H03,2021,10,10,10,0.002,0.011,0.031,0.2,0.001,0.005,9,26.8,58.3,SW,0.3
H03,2021,10,10,11,0.002,0.009,0.038,0.2,0.001,0.004,3,27.3,57.7,SW,1.1
H03,2021,10,10,12,0.002,0.007,0.04,0.2,0,0.002,6,28.7,53.1,SSE,0.6
H03,2021,10,10,13,0.002,0.008,0.039,0.2,0.001,0.003,4,28.1,57.2,SSW,1.1
H03,2021,10,10,14,0.002,0.007,0.039,0.2,0.001,0.003,4,28.5,55.8,SW,1.3
H03,2021,10,10,15,0.002,0.006,0.041,0.2,0,0.003,6,28.9,55.3,S,1.5
H03,2021,10,10,16,0.002,0.008,0.041,0.2,0,0.002,4,28.1,56.4,S,1.4
H03,2021,10,10,17,0.002,0.006,0.043,0.2,0,0.003,3,27.5,55.9,SSW,1.6
H03,2021,10,10,18,0.001,0.008,0.043,0.2,0,0.004,7,26.7,55.2,S,1.3
H03,2021,10,10,19,0.002,0.01,0.041,0.2,0,0.004,7,26.1,64.2,SSW,1.3
H03,2021,10,10,20,0.001,0.012,0.043,0.2,0,0.004,6,25.6,66.8,SW,1.2
H03,2021,10,10,21,0.002,0.011,0.043,0.2,0,0.004,6,25.2,67.7,WSW,0.9
H03,2021,10,10,22,0.001,0.01,0.038,0.2,0,0.005,6,24.8,68.7,SW,0.4
H03,2021,10,10,23,0.002,0.012,0.034,0.2,0,0.005,7,24.6,69.6,CALM,0
H03,2021,10,10,24,0.001,0.011,0.027,0.2,0,0.008,6,24.2,71.3,CALM,0.1
H03,2021,10,11,1,0.002,0.012,0.019,0.2,0.001,0.01,8,23.6,73.1,CALM,0
H03,2021,10,11,2,0.002,0.011,0.018,0.2,0,0.009,7,23.3,74,CALM,0
H03,2021,10,11,3,0.002,0.011,0.015,0.2,0.001,0.01,8,23.1,73.1,CALM,0
H03,2021,10,11,4,0.002,0.01,0.015,0.2,0.001,0.009,8,22.2,77.4,CALM,0.1
H03,2021,10,11,5,0.002,0.01,0.004,0.2,0.001,0.017,7,21.8,79.3,CALM,0
H03,2021,10,11,6,0.001,0.011,0.004,0.2,0.001,0.012,6,21.5,80.3,CALM,0.1
H03,2021,10,11,7,0.002,0.011,0.003,0.2,0.004,0.012,8,21.9,75.8,CALM,0
H03,2021,10,11,8,0.003,0.009,0.006,0.2,0.009,0.011,6,23.4,68.2,CALM,0.2
H03,2021,10,11,9,0.002,0.01,0.012,0.2,0.007,0.01,6,25.1,62.3,CALM,0.1
H03,2021,10,11,10,0.003,0.01,0.018,0.3,0.004,0.011,7,26.9,57.4,CALM,0.2
H03,2021,10,11,11,0.003,0.01,0.032,0.2,0.003,0.008,7,27.9,54,SSW,0.4
H03,2021,10,11,12,0.003,0.016,0.041,0.2,0.002,0.007,8,29.8,48.1,SSW,0.8
H03,2021,10,11,13,0.002,0.012,0.047,0.2,0.001,0.005,7,28.7,54.1,SSE,0.5
H03,2021,10,11,14,0.002,0.014,0.048,0.2,0.001,0.004,12,28.2,55.7,SE,0.3
H03,2021,10,11,15,0.002,0.016,0.047,0.2,0.001,0.005,10,28.9,53.5,SSE,0.3
H03,2021,10,11,16,0.002,0.015,0.048,0.2,0.001,0.006,11,28.8,57,SSE,0.3
H03,2021,10,11,17,0.003,0.02,0.047,0.2,0,0.007,12,28,59.1,CALM,0.1
H03,2021,10,11,18,0.002,0.019,0.042,0.3,0,0.009,15,27.5,61.7,CALM,0.1
H03,2021,10,11,19,0.002,0.019,0.039,0.2,0.001,0.013,13,26.7,67.5,E,0.4
H03,2021,10,11,20,0.002,0.022,0.038,0.2,0,0.016,12,26.3,69.8,SE,0.4
H03,2021,10,11,21,0.002,0.022,0.033,0.3,0.001,0.017,12,26.3,71.2,CALM,0.2
H03,2021,10,11,22,0.002,0.019,0.029,0.3,0.001,0.015,14,26.1,71.8,CALM,0.1
H03,2021,10,11,23,0.002,0.013,0.031,0.2,0.001,0.013,8,25.8,73.6,CALM,0
H03,2021,10,11,24,0.002,0.019,0.018,0.3,0.001,0.019,11,26.1,73.1,SW,0.3
H03,2021,10,12,1,***,0.022,0.017,***,***,***,12,25.8,74,CALM,0.1
H03,2021,10,12,2,0.002,0.019,0.013,0.3,0.001,0.016,12,25.6,74,CALM,0.1
H03,2021,10,12,3,0.002,0.022,0.011,0.3,0.001,0.018,13,25.1,76.8,CALM,0.2
H03,2021,10,12,4,0.002,0.023,0.002,0.3,0.002,0.023,16,24.6,76.8,CALM,0
H03,2021,10,12,5,0.002,0.023,0.005,0.3,0.001,0.017,14,23.7,86.4,CALM,0
H03,2021,10,12,6,0.002,0.021,0.008,0.2,0.001,0.013,14,23.3,94.6,CALM,0
H03,2021,10,12,7,0.002,0.024,0.005,0.3,0.005,0.02,14,23.4,93.7,CALM,0.1
H03,2021,10,12,8,0.002,0.023,0.008,0.3,0.005,0.019,13,23.4,92.7,CALM,0
H03,2021,10,12,9,0.002,0.025,0.006,0.3,0.013,0.022,15,23.9,88.4,CALM,0
H03,2021,10,12,10,0.003,0.02,0.015,0.3,0.007,0.017,12,26.1,75.9,CALM,0.2
H03,2021,10,12,11,0.003,0.015,0.029,0.2,0.002,0.01,8,27.1,69.2,SSE,0.3
H03,2021,10,12,12,0.002,0.016,0.038,0.2,0.002,0.008,10,28.4,64,SSE,0.4
H03,2021,10,12,13,0.002,0.019,0.043,0.2,0.002,0.008,16,28.9,61,CALM,0.1
H03,2021,10,12,14,0.002,0.022,0.048,0.2,0.001,0.009,16,28.2,66.3,SSE,0.3
H03,2021,10,12,15,0.002,0.02,0.044,0.3,0.002,0.011,13,29,62.2,SSE,0.3
H03,2021,10,12,16,0.002,0.02,0.046,0.2,0.001,0.012,11,28.2,64.8,CALM,0.2
H03,2021,10,12,17,0.002,0.015,0.045,0.3,0.001,0.01,10,27.8,65.5,SE,0.3
H03,2021,10,12,18,0.002,0.014,0.04,0.2,0,0.009,10,27.2,68.7,CALM,0.2
H03,2021,10,12,19,0.002,0.009,0.026,0.2,0.001,0.009,7,26.7,71.8,ESE,0.6
H03,2021,10,12,20,0.002,0.028,0.044,0.3,0,0.013,13,26.7,74.5,SE,0.4
H03,2021,10,12,21,0.002,0.018,0.038,0.2,0,0.008,10,26.3,81.6,SE,0.8
H03,2021,10,12,22,0.002,0.016,0.035,0.2,0,0.008,6,26.1,84.1,E,0.7
H03,2021,10,12,23,0.002,0.018,0.034,0.2,0,0.007,8,25.4,84.2,SW,1
H03,2021,10,12,24,0.002,0.022,0.032,0.2,0,0.007,12,25.1,84.5,SW,0.7
H03,2021,10,13,1,0.002,0.026,0.03,0.2,0,0.007,12,23.9,95.9,SSW,0.6
H03,2021,10,13,2,0.002,0.019,0.028,0.2,0,0.007,11,23.3,99.1,CALM,0
H03,2021,10,13,3,0.001,0.014,0.026,0.2,0,0.007,9,23,99,CALM,0
H03,2021,10,13,4,0.002,0.015,0.021,0.2,0,0.009,8,22.7,98.5,CALM,0.1
H03,2021,10,13,5,0.001,0.015,0.018,0.2,0,0.011,10,22.7,98,CALM,0.1
H03,2021,10,13,6,0.002,0.012,0.015,0.4,0,0.012,6,22.5,97.7,CALM,0.2
H03,2021,10,13,7,0.002,0.009,0.017,0.3,0.001,0.011,6,22.5,98.5,CALM,0
H03,2021,10,13,8,0.002,0.011,0.016,0.3,0.002,0.013,7,22.7,96.1,SW,0.6
H03,2021,10,13,9,0.002,0.011,0.017,0.3,0.004,0.014,8,23.7,91.2,CALM,0.1
H03,2021,10,13,10,0.002,0.011,0.021,0.3,0.004,0.014,6,24.4,85.7,SSE,0.5
H03,2021,10,13,11,0.002,0.011,0.029,0.2,0.001,0.007,6,24.8,79.6,CALM,0.2
H03,2021,10,13,12,0.002,0.012,0.03,0.2,0.001,0.008,8,25.2,75.8,SSE,0.3
H03,2021,10,13,13,0.002,0.009,0.036,0.2,0.001,0.006,6,25.4,75.8,ESE,0.5
H03,2021,10,13,14,0.002,0.014,0.029,0.3,0.004,0.014,10,26.2,74.8,SSE,0.7
H03,2021,10,13,15,0.002,0.017,0.035,0.2,0.002,0.01,9,25.2,80.2,SE,0.9
H03,2021,10,13,16,0.001,0.015,0.035,0.2,0.001,0.01,8,24.9,82.5,SE,1
H03,2021,10,13,17,0.002,0.012,0.035,0.2,0.001,0.01,8,24.6,83,ESE,0.7
H03,2021,10,13,18,0.002,0.011,0.03,0.2,0.001,0.012,5,24.3,85.7,S,0.8
H03,2021,10,13,19,0.001,0.007,0.027,0.2,0.001,0.01,5,23.8,85.5,SSE,0.9
H03,2021,10,13,20,0.002,0.008,0.025,0.2,0.001,0.01,6,23.7,83.1,SSW,0.5
H03,2021,10,13,21,0.002,0.01,0.024,0.2,0,0.01,5,23.3,84.1,SE,0.4
H03,2021,10,13,22,0.002,0.008,0.024,0.2,0,0.009,4,23.3,72.7,CALM,0.1
H03,2021,10,13,23,0.002,0.013,0.026,0.2,0,0.006,5,23.1,71.6,CALM,0
H03,2021,10,13,24,0.002,0.014,0.021,0.2,0,0.009,7,22.8,76.3,CALM,0.1
H03,2021,10,14,1,0.002,0.008,0.021,0.2,0,0.009,4,22.5,72.1,CALM,0.2
H03,2021,10,14,2,0.003,0.011,0.023,0.2,0,0.008,4,22.2,73.7,CALM,0
H03,2021,10,14,3,0.003,0.007,0.02,0.2,0,0.008,6,21.6,74.8,CALM,0
H03,2021,10,14,4,0.002,0.008,0.019,0.2,0,0.009,5,21,76.8,CALM,0
H03,2021,10,14,5,0.002,0.007,0.016,0.2,0,0.01,5,20.6,80,CALM,0.1
H03,2021,10,14,6,0.002,0.01,0.008,0.2,0.001,0.013,6,20.3,79.3,CALM,0.1
H03,2021,10,14,7,0.002,0.011,0.007,0.2,0.003,0.016,5,21.2,72.7,CALM,0.1
H03,2021,10,14,8,0.002,0.01,0.011,0.2,0.007,0.014,5,21.8,73.4,CALM,0
H03,2021,10,14,9,0.002,0.005,0.013,0.2,0.006,0.009,3,24.1,56.9,CALM,0.2
H03,2021,10,14,10,0.002,0.004,0.022,0.2,0.003,0.007,2,25.1,50.7,CALM,0.2
H03,2021,10,14,11,0.002,0.006,0.033,0.2,0.002,0.006,6,26.7,39.8,SSW,0.3
H03,2021,10,14,12,0.001,0.01,0.04,0.2,0.001,0.005,2,29.3,32.3,CALM,0.2
H03,2021,10,14,13,0.001,0.004,0.046,0.2,0.001,0.005,3,29.1,33.1,SE,0.5
H03,2021,10,14,14,0.002,0.003,0.047,0.2,0.001,0.003,4,28.1,36.2,SE,0.5
H03,2021,10,14,15,0.002,0.008,0.046,0.1,0.001,0.003,6,27.9,35.9,SE,0.8
H03,2021,10,14,16,0.001,0.002,0.047,0.1,0,0.002,5,27.3,38.3,SE,0.4
H03,2021,10,14,17,0.001,0.003,0.044,0.2,0,0.003,2,26.5,41.8,ESE,0.3
H03,2021,10,14,18,0.002,0.007,0.037,0.2,0.001,0.007,3,24.9,47.3,CALM,0.2
H03,2021,10,14,19,0.001,0.007,0.034,0.2,0.001,0.009,6,24,52.5,SE,0.3
H03,2021,10,14,20,0.002,0.01,0.032,0.2,0,0.01,7,23.6,54.6,SSE,0.3
H03,2021,10,14,21,0.002,0.007,0.032,0.2,0,0.009,6,24,54.7,CALM,0.1
H03,2021,10,14,22,0.002,0.008,0.025,0.2,0,0.012,6,22.6,59.3,CALM,0.2
H03,2021,10,14,23,0.002,0.01,0.018,0.2,0,0.014,7,21.8,63.8,CALM,0.1
H03,2021,10,14,24,0.002,0.015,0.012,0.2,0.001,0.015,10,20.7,70.8,CALM,0.2
H03,2021,10,15,1,0.002,0.013,0.01,0.2,0.001,0.015,8,20.1,71.7,CALM,0.1
H03,2021,10,15,2,0.002,0.008,0.007,0.2,0.001,0.014,9,19.4,75.2,SE,0.3
H03,2021,10,15,3,0.002,0.008,0.008,0.2,0.001,0.011,9,19.4,73.9,CALM,0.1
H03,2021,10,15,4,0.002,0.009,0.008,0.2,0.001,0.011,8,18.8,75.9,CALM,0.1
H03,2021,10,15,5,0.003,0.01,0.003,0.2,0.003,0.015,6,18.2,78.9,CALM,0.2
H03,2021,10,15,6,0.003,0.01,0.001,0.2,0.004,0.015,6,18,79.1,CALM,0.2
H03,2021,10,15,7,0.002,0.013,0.003,0.2,0.005,0.013,8,18.5,76.6,CALM,0.1
H03,2021,10,15,8,0.003,0.01,0.008,0.2,0.006,0.01,7,20,70.5,CALM,0.1
H03,2021,10,15,9,0.003,0.011,0.013,0.2,0.007,0.011,7,21.6,61.5,CALM,0.2
H03,2021,10,15,10,0.002,0.008,0.026,0.2,0.003,0.008,8,23.6,55.8,SSE,0.4
H03,2021,10,15,11,0.002,0.005,0.038,0.2,0.002,0.007,8,24.6,48.2,CALM,0.2
H03,2021,10,15,12,0.002,0.01,0.049,0.2,0.001,0.005,3,27.8,39.5,SSE,0.4
H03,2021,10,15,13,0.002,0.011,0.051,0.2,0.001,0.006,6,28.7,36.8,SSE,0.5
H03,2021,10,15,14,0.002,0.009,0.05,0.2,0.002,0.007,3,28.7,36.1,S,0.4
H03,2021,10,15,15,0.002,0.005,0.055,0.2,0.001,0.007,7,28,39.5,S,0.5
H03,2021,10,15,16,0.002,0.011,0.056,0.2,0,0.004,8,28,41.5,SSE,0.4
H03,2021,10,15,17,0.002,0.012,0.052,0.2,0,0.006,8,27.2,47.4,SE,0.4
H03,2021,10,15,18,0.002,0.007,0.037,0.2,0.001,0.007,7,25.1,52.9,SSE,0.3
H03,2021,10,15,19,0.002,0.008,0.034,0.2,0,0.007,6,23.9,58.2,CALM,0.2
H03,2021,10,15,20,0.002,0.007,0.03,0.2,0,0.008,5,23.3,62.5,CALM,0.2
H03,2021,10,15,21,0.002,0.007,0.026,0.2,0,0.01,4,23.3,61.5,CALM,0
H03,2021,10,15,22,0.002,0.008,0.025,0.2,0,0.009,6,22.5,63.8,CALM,0.1
H03,2021,10,15,23,0.002,0.009,0.022,0.2,0.001,0.011,6,21.8,66.1,CALM,0.1
H03,2021,10,15,24,0.002,0.009,0.022,0.2,0,0.009,8,21.5,67.7,CALM,0.2
H03,2021,10,16,1,0.002,0.011,0.016,0.2,0,0.012,8,20.9,72.1,CALM,0.2
H03,2021,10,16,2,0.002,0.014,0.008,0.2,0.001,0.016,9,20.4,76.4,SSE,0.3
H03,2021,10,16,3,0.002,0.017,0.004,0.3,0.001,0.018,10,20.3,77.4,CALM,0.1
H03,2021,10,16,4,0.002,0.017,0.004,0.3,0.002,0.018,13,19.8,77.8,CALM,0.1
H03,2021,10,16,5,0.002,0.018,0.008,0.3,0.001,0.013,15,19.7,78.1,CALM,0.1
H03,2021,10,16,6,0.002,0.023,0.003,0.3,0.002,0.018,17,19.1,80.3,CALM,0.2
H03,2021,10,16,7,0.004,0.021,0.003,0.3,0.007,0.017,16,19.7,77.8,CALM,0.1
H03,2021,10,16,8,0.003,0.02,0.008,0.2,0.006,0.012,15,20.7,74.6,SSE,0.3
H03,2021,10,16,9,0.003,0.019,0.015,0.3,0.007,0.013,16,23,67.7,CALM,0.1
H03,2021,10,16,10,0.003,0.018,0.029,0.3,0.002,0.011,14,23.9,63.2,CALM,0.1
H03,2021,10,16,11,0.003,0.014,0.044,0.3,0.001,0.008,12,25.9,58.9,SSW,0.4
H03,2021,10,16,12,0.003,0.019,0.06,0.4,0.001,0.008,13,26.1,59.6,SSE,0.5
H03,2021,10,16,13,0.003,0.018,0.065,0.4,0.001,0.007,14,27.9,52.6,S,0.6
H03,2021,10,16,14,0.003,0.02,0.066,0.3,0,0.005,12,28,51.3,SSE,0.8
H03,2021,10,16,15,0.002,0.017,0.068,0.2,0,0.005,16,27.8,52.7,S,0.6
H03,2021,10,16,16,0.002,0.016,0.066,0.2,0,0.006,14,27.2,55.1,ESE,0.6
H03,2021,10,16,17,0.002,0.016,0.062,0.2,0,0.007,12,26.4,58.8,E,0.7
H03,2021,10,16,18,0.002,0.023,0.06,0.2,0,0.008,14,25.7,67.4,E,0.6
H03,2021,10,16,19,0.002,0.02,0.056,0.2,0,0.009,12,25.2,74.1,SE,0.8
H03,2021,10,16,20,0.002,0.017,0.048,0.2,0,0.008,10,25.1,78,ESE,0.8
H03,2021,10,16,21,0.002,0.013,0.042,0.2,0,0.008,9,25.1,80,SE,0.7
H03,2021,10,16,22,0.002,0.017,0.042,0.2,0,0.006,11,22.7,90.2,CALM,0.2
H03,2021,10,16,23,0.002,0.01,0.035,0.2,0,0.003,7,21.3,82.9,SE,0.4
H03,2021,10,16,24,0.001,0.01,0.033,0.2,0,0.003,1,20.6,78.8,SE,0.3
H03,2021,10,17,1,0.002,0.008,0.034,0.2,0,0.002,1,20.3,79.8,S,0.4
H03,2021,10,17,2,0.002,0.006,0.034,0.2,0,0.002,-1,19.5,82.5,SSE,0.3
H03,2021,10,17,3,0.002,0.003,0.035,0.2,0,0.002,0,19.5,71.7,SE,0.3
H03,2021,10,17,4,0.002,0.004,0.038,0.1,0,0.002,1,19.1,73.7,SSE,0.3
H03,2021,10,17,5,0.001,0.001,0.038,0.2,0,0.002,2,18.9,75.7,SSE,0.4
H03,2021,10,17,6,0.001,0.002,0.036,0.2,0,0.002,3,18.8,76.5,SE,0.3
H03,2021,10,17,7,0.002,0.004,0.032,0.2,0,0.003,-1,19.1,72.1,SSE,0.3
H03,2021,10,17,8,0.001,0.004,0.03,0.2,0,0.004,0,19.5,66.1,SSE,0.4
H03,2021,10,17,9,0.001,0.003,0.029,0.2,0.001,0.004,-1,19.5,59.2,SSW,0.5
H03,2021,10,17,10,0.001,0,0.031,0.2,0,0.002,0,20.3,53.1,S,0.5
H03,2021,10,17,11,0.001,0.001,0.031,0.2,0,0.002,1,20.7,50.9,S,0.8
H03,2021,10,17,12,0.001,0,0.03,0.2,0,0.002,0,21.9,44.5,S,0.6
H03,2021,10,17,13,0.001,0,0.031,0.2,0,0.001,-2,23.9,40.2,S,0.7
H03,2021,10,17,14,0.001,0.001,0.031,0.2,0.001,0.002,-1,23.6,38.6,SSW,0.4
H03,2021,10,17,15,0.001,0.004,0.033,0.2,0.001,0.002,3,22.8,34.4,S,0.7
H03,2021,10,17,16,0.001,0.001,0.033,0.2,0.001,0.002,3,23,37.2,S,0.4
H03,2021,10,17,17,0.001,0.003,0.031,0.2,0,0.003,1,21.2,38.9,SSW,0.4
H03,2021,10,17,18,0.001,0.003,0.03,0.2,0.001,0.003,2,19.4,41.1,SSW,0.3
H03,2021,10,17,19,0.001,0.001,0.029,0.2,0.001,0.004,1,17.7,45.4,S,0.6
H03,2021,10,17,20,0.001,0.002,0.029,0.2,0,0.003,1,17,48.2,SE,0.3
H03,2021,10,17,21,0.001,0.002,0.029,0.2,0,0.002,3,17.3,50.8,SSW,0.3
H03,2021,10,17,22,0.001,0.003,0.027,0.2,0,0.005,4,15.9,48.2,SSW,0.4
H03,2021,10,17,23,0.001,0.003,0.028,0.2,0,0.005,4,15.3,48.6,SSE,0.3
H03,2021,10,17,24,0.001,0.003,0.03,0.2,0,0.003,2,15.3,49.2,CALM,0.2
H03,2021,10,18,1,0.001,0.004,0.031,0.2,0,0.002,3,14.9,52,CALM,0.2
H03,2021,10,18,2,0.001,0.003,0.031,0.2,0,0.002,1,14.7,48.9,CALM,0.1
H03,2021,10,18,3,0.001,0.005,0.028,0.2,0,0.005,3,13.6,51.8,CALM,0.1
H03,2021,10,18,4,0.001,0.004,0.025,0.2,0,0.007,2,12.8,55.1,CALM,0.2
H03,2021,10,18,5,0.001,0.005,0.02,0.2,0.001,0.01,3,13.8,57,CALM,0.2
H03,2021,10,18,6,0.001,0.002,0.02,0.2,0.001,0.008,2,12.7,56.2,CALM,0
H03,2021,10,18,7,0.001,0.004,0.017,0.2,0.001,0.011,3,13.5,54.4,CALM,0
H03,2021,10,18,8,0.001,0.005,0.02,0.2,0.004,0.011,1,15.3,46.5,CALM,0.2
H03,2021,10,18,9,0.001,0.005,0.024,0.2,0.003,0.009,4,15.5,44.1,CALM,0.1
H03,2021,10,18,10,0.001,0.005,0.026,0.2,0.002,0.007,3,16.4,42.1,SSE,0.3
H03,2021,10,18,11,0.001,0.004,0.03,0.2,0.002,0.005,2,17.3,40.9,SSE,0.3
H03,2021,10,18,12,0.001,0.004,0.033,0.2,0.001,0.005,3,18.6,38.4,S,0.3
H03,2021,10,18,13,0.001,0.006,0.035,0.2,0.001,0.006,6,18.9,34.4,CALM,0.2
H03,2021,10,18,14,0.001,0.005,0.036,0.2,0.001,0.007,4,19,31.7,S,0.3
H03,2021,10,18,15,0.001,0.004,0.036,0.2,0.002,0.009,7,18.8,33.2,SE,0.4
H03,2021,10,18,16,0.002,0.005,0.034,0.2,0.001,0.011,4,19.1,35,SW,0.3
H03,2021,10,18,17,0.001,0.005,0.031,0.2,0.001,0.014,5,18.6,36.2,CALM,0.2
H03,2021,10,18,18,0.001,0.01,0.027,0.2,0.001,0.015,9,18,45.2,CALM,0.2
H03,2021,10,18,19,0.001,0.013,0.022,0.3,0.001,0.018,9,18,47.1,CALM,0.2
H03,2021,10,18,20,0.001,0.01,0.021,0.3,0.001,0.019,7,18,46.9,CALM,0.2
H03,2021,10,18,21,0.002,0.012,0.018,0.3,0.001,0.022,7,18.2,41.1,CALM,0
H03,2021,10,18,22,0.002,0.011,0.015,0.3,0.001,0.023,10,18.5,45,CALM,0.2
H03,2021,10,18,23,0.001,0.01,0.013,0.3,0.001,0.022,10,17.9,47.5,CALM,0